TimeMST,TemperatureF,Dew PointF,Humidity,Sea Level PressureIn,VisibilityMPH,Wind Direction,Wind SpeedMPH,Gust SpeedMPH,PrecipitationIn,Events,Conditions,WindDirDegrees,DateUTC
12:52 AM,43.0,24.1,47,29.94,10.0,NNW,4.6,-,N/A,,Mostly Cloudy,330,2013-02-07 07:52:00
1:52 AM,39.9,21.9,49,29.96,10.0,Calm,Calm,-,N/A,,Partly Cloudy,0,2013-02-07 08:52:00
2:52 AM,35.1,21.0,57,29.99,10.0,SSE,3.5,-,N/A,,Clear,160,2013-02-07 09:52:00
3:52 AM,36.0,21.0,55,29.99,10.0,Calm,Calm,-,N/A,,Clear,0,2013-02-07 10:52:00
4:52 AM,30.0,18.0,61,30.03,10.0,East,3.5,-,N/A,,Partly Cloudy,80,2013-02-07 11:52:00
5:52 AM,35.1,21.9,59,30.04,10.0,East,4.6,-,N/A,,Partly Cloudy,100,2013-02-07 12:52:00
6:52 AM,35.1,21.9,59,30.06,10.0,North,3.5,-,N/A,,Clear,360,2013-02-07 13:52:00
7:52 AM,33.8,21.2,60,30.16,10.0,East,5.8,-,N/A,,Clear,100,2013-02-07 14:52:00
8:52 AM,42.1,25.0,51,30.12,10.0,NNW,4.6,-,N/A,,Clear,340,2013-02-07 15:52:00
9:52 AM,45.0,24.1,44,30.12,10.0,North,5.8,-,N/A,,Partly Cloudy,360,2013-02-07 16:52:00
10:52 AM,46.9,24.1,41,30.12,10.0,Calm,Calm,-,N/A,,Partly Cloudy,0,2013-02-07 17:52:00
11:52 AM,48.9,24.1,38,30.09,10.0,Calm,Calm,-,N/A,,Partly Cloudy,0,2013-02-07 18:52:00
12:52 PM,50.0,23.0,35,30.07,10.0,Calm,Calm,-,N/A,,Partly Cloudy,0,2013-02-07 19:52:00
1:52 PM,53.1,21.0,29,30.05,10.0,Calm,Calm,-,N/A,,Partly Cloudy,0,2013-02-07 20:52:00
2:52 PM,54.0,19.0,25,30.05,10.0,West,3.5,-,N/A,,Partly Cloudy,280,2013-02-07 21:52:00
3:52 PM,55.0,12.9,19,30.04,10.0,Calm,Calm,-,N/A,,Partly Cloudy,0,2013-02-07 22:52:00
4:52 PM,53.1,10.9,19,30.07,10.0,South,3.5,-,N/A,,Partly Cloudy,170,2013-02-07 23:52:00
5:52 PM,52.0,12.9,21,30.07,10.0,South,4.6,-,N/A,,Partly Cloudy,180,2013-02-08 00:52:00
6:52 PM,46.0,12.0,25,30.10,10.0,SE,4.6,-,N/A,,Partly Cloudy,140,2013-02-08 01:52:00
7:52 PM,43.0,10.9,27,30.12,10.0,ESE,8.1,-,N/A,,Clear,120,2013-02-08 02:52:00
8:52 PM,45.0,15.1,30,30.08,10.0,East,13.8,-,N/A,,Clear,80,2013-02-08 03:52:00
9:52 PM,44.1,19.0,37,30.08,10.0,ESE,6.9,-,N/A,,Clear,110,2013-02-08 04:52:00
10:52 PM,42.1,21.0,43,30.08,10.0,East,11.5,-,N/A,,Clear,100,2013-02-08 05:52:00
11:52 PM,42.8,21.2,42,30.13,10.0,East,13.8,-,N/A,,Partly Cloudy,90,2013-02-08 06:52:00